Location: Delettes
(50.6178°N, 2.2123°E)
Time: 15:21:01
(UTC+00:00)

Daily predictions for brighter satellites

Satellite Brightness Start Highest point End
(mag) Time Altitude Azimuth Time Altitude Azimuth Time Altitude Azimuth
STARLINK-30 3.7 17:54:57 10° W 17:58:59 69° N 18:03:00 10° ENE
STARLINK-1030 3.7 17:54:59 10° SW 17:59:05 66° SSE 18:03:12 10° ENE
Cosmos 2297 Rocket 3.6 17:55:50 10° NNW 18:00:05 21° NE 18:04:20 10° E
Cosmos 1943 Rocket 2.4 17:54:46 10° SSW 18:00:21 79° WNW 18:05:55 10° NNE
STARLINK-72 3.7 17:56:38 10° W 18:00:38 68° N 18:04:40 10° ENE
Cosmos 1725 Rocket 4.2 17:54:44 10° SSW 18:00:56 80° W 18:07:12 10° N
CSL-04 Debris 4.2 17:55:58 10° SSE 18:01:21 62° ENE 18:06:47 10° N
SKYMED 2 3.6 17:57:08 10° NNE 18:01:29 67° ESE 18:05:48 10° S
Cosmos 1666 Rocket 3.9 17:57:05 10° SSW 18:01:33 75° W 18:06:03 10° N
Cosmos 1933 Rocket 4.0 17:58:03 10° SSE 18:02:09 40° E 18:06:15 10° NNE
STARLINK-50 3.8 17:58:17 10° W 18:02:18 67° N 18:06:19 10° ENE
NOSS 2 (A) 4.4 18:01:07 10° NW 18:03:42 45° NE 18:06:01 10° ESE
STARLINK-1020 3.7 17:59:56 10° WSW 18:04:03 70° SSE 18:08:10 10° ENE
STARLINK-59 3.8 18:00:02 10° W 18:04:03 66° N 18:08:04 10° ENE
STARLINK-56 3.8 18:01:37 10° W 18:05:37 66° N 18:09:39 10° ENE
Cosmos 1862 4.4 18:03:00 10° SSW 18:06:52 49° WNW 18:10:45 10° N
STARLINK-73 3.8 18:03:15 10° W 18:07:16 66° N 18:11:18 10° ENE
STARLINK-1010 3.3 18:04:55 10° W 18:08:10 62° N 18:11:26 10° ENE
Cosmos 1340 2.6 18:05:08 10° S 18:08:50 64° E 18:12:35 10° NNE
STARLINK-38 3.8 18:04:57 10° W 18:08:58 65° N 18:12:58 10° ENE
STARLINK-1052 3.7 18:04:53 10° WSW 18:09:01 73° SSE 18:13:09 10° ENE
NOAA 11 4.2 18:04:25 10° SSE 18:09:51 78° ENE 18:15:18 10° NNW
Cosmos 1346 Rocket 2.9 18:06:01 10° S 18:09:52 52° E 18:13:43 10° NNE
STARLINK-65 3.8 18:06:35 10° W 18:10:36 65° N 18:14:35 10° ENE
Cosmos 1937 Rocket 3.9 18:06:07 10° NNW 18:11:06 41° ENE 18:16:01 10° SE
STARLINK-1047 3.7 18:07:11 10° WSW 18:11:20 76° SSE 18:15:31 10° ENE
STARLINK-53 3.8 18:08:21 10° W 18:12:21 64° N 18:16:17 11° ENE
Genesis I 4.1 18:10:17 10° NNW 18:13:47 31° NE 18:17:06 11° E
USA 238 DEB 4.3 18:08:17 10° NW 18:15:00 44° NNE 18:21:52 10° E
USA 238 4.3 18:08:23 10° NW 18:15:06 43° NNE 18:21:56 10° E
ADEOS Rocket 3.8 18:07:34 10° NNE 18:15:07 50° E 18:22:27 10° S
STARLINK-1033 3.6 18:14:49 10° WSW 18:18:58 80° SSE 18:22:50 12° ENE
Cosmos 2227 Rocket 3.4 18:14:54 10° NNW 18:19:26 24° NE 18:23:25 12° E
Meteor 1-20 Rocket 4.4 18:16:16 10° SSE 18:21:32 49° E 18:26:54 10° NNE
Orbus 7S? 4.2 18:14:29 10° WSW 18:22:22 69° NNW 18:25:51 10° NE
NOSS 3-1 (C) 4.0 18:17:16 10° WSW 18:22:55 60° NW 18:29:36 10° NE
Cosmos 1656 Rocket 3.7 18:19:22 10° SSW 18:24:51 67° ESE 18:30:27 10° NNE
STARLINK-1038 4.4 18:22:01 10° SSW 18:25:46 34° SE 18:28:44 15° E
STARLINK-1024 3.6 18:24:47 10° WSW 18:28:56 88° SSE 18:32:25 14° ENE
STARLINK-1046 4.3 18:26:55 10° SSW 18:30:44 36° SE 18:33:32 16° E
STARLINK 1040 3.1 18:28:05 10° W 18:30:49 48° N 18:32:39 18° ENE
H-2A R/B 2.7 18:27:00 10° SE 18:31:59 39° ENE 18:37:01 10° N
STARLINK-22 3.4 18:30:48 10° WNW 18:34:03 54° N 18:36:16 18° ENE
STARLINK-41 3.4 18:32:18 10° WNW 18:35:33 54° N 18:37:41 19° ENE
Cosmos 2034 Rocket 4.4 18:29:58 10° SSE 18:35:36 39° E 18:41:16 10° NNE
STARLINK-1039 4.2 18:31:51 10° SW 18:35:43 39° SE 18:38:21 18° E
STARLINK-1016 3.5 18:33:03 10° W 18:36:26 56° N 18:38:43 18° ENE
Meteor 1-18 Rocket 4.3 18:31:38 10° N 18:37:34 70° ENE 18:43:21 10° SSE
STARLINK-1008 3.5 18:34:43 10° W 18:38:06 56° N 18:40:20 19° ENE
COSMOS 2487 3.3 18:35:10 10° NNW 18:38:33 52° WSW 18:41:54 10° S
STARLINK-1032 3.6 18:34:45 10° WSW 18:38:54 86° NNW 18:41:59 18° ENE
STARLINK-75 3.4 18:36:39 10° WNW 18:39:58 56° N 18:41:58 21° ENE
STARLINK-1045 4.2 18:36:45 10° SW 18:40:40 42° SE 18:43:08 20° E
STARLINK-58 3.6 18:37:35 10° WNW 18:41:06 56° N 18:43:17 21° ENE
STARLINK-24 3.8 18:37:09 10° W 18:41:09 60° N 18:43:51 19° ENE
Cosmos 1470 Rocket 4.1 18:37:51 10° SSW 18:42:12 62° WNW 18:46:36 10° N
STARLINK-1025 3.5 18:38:54 10° W 18:42:16 56° N 18:44:21 21° ENE
STARLINK-62 3.5 18:39:18 10° WNW 18:42:49 56° N 18:44:55 22° ENE
STARLINK-43 3.9 18:39:48 10° WNW 18:43:26 52° SSW 18:46:22 15° SE
STARLINK-1011 3.6 18:39:43 10° WSW 18:43:52 83° NNW 18:46:45 19° ENE
STARLINK-1017 3.5 18:40:59 10° W 18:44:22 55° N 18:46:21 22° ENE
STARLINK-34 3.5 18:40:55 10° WNW 18:44:25 56° N 18:46:29 22° ENE
Timation 2 Rocket 4.2 18:37:49 10° NNW 18:44:44 87° NE 18:51:38 10° SSE
Lacrosse 5 rocket 2.1 18:40:56 10° WNW 18:45:21 47° NNE 18:48:11 21° E
STARLINK-1035 3.7 18:41:20 10° WSW 18:45:36 79° NNW 18:48:33 20° ENE
STARLINK-1050 4.0 18:41:42 10° SW 18:45:39 45° SSE 18:47:58 22° E
OPS 8737 4.3 18:41:48 10° SW 18:45:42 74° SE 18:48:02 17° NE
Okean 1 3.2 18:41:46 10° N 18:45:47 72° ENE 18:49:45 10° SSE
STARLINK-1031 3.6 18:41:44 10° WSW 18:45:51 78° NNW 18:48:37 20° ENE
HJ-1C 3.2 18:43:33 10° SSE 18:46:50 79° ENE 18:50:10 10° N
Okean 1-7 2.9 18:42:29 10° N 18:46:51 82° E 18:51:12 10° SSE
Cosmos 468 Rocket 4.1 18:42:46 10° S 18:47:56 57° ESE 18:53:10 10° NNE
Cosmos 2219 3.6 18:42:41 10° NNW 18:48:12 44° NE 18:52:15 18° ESE
STARLINK-1036 3.6 18:44:42 10° WSW 18:48:51 80° NNW 18:51:32 21° ENE
COSMO-SKYMED 1 3.9 18:45:22 10° N 18:49:30 44° WNW 18:53:37 10° SW
STARLINK-1055 3.9 18:46:37 10° SW 18:50:36 48° SSE 18:52:45 24° E
STARLINK-1048 3.5 18:47:22 10° W 18:50:44 55° N 18:52:29 25° ENE
Cosmos 405 3.2 18:48:07 10° NNW 18:51:41 74° W 18:55:13 10° S
Cosmos 1092 Rocket 4.4 18:45:52 10° N 18:51:53 42° ENE 18:57:51 10° SE
STARLINK-81 3.8 18:47:53 10° W 18:51:53 60° N 18:54:10 24° ENE
Cosmos 192 4.3 18:47:34 10° S 18:52:24 61° ESE 18:57:15 10° NNE
STARLINK-1049 3.5 18:49:30 10° W 18:52:53 55° N 18:54:32 26° ENE
Lacrosse 5 2.5 18:48:21 10° SSW 18:53:01 37° SE 18:55:38 22° E
STARLINK-54 3.8 18:49:45 10° W 18:53:45 60° N 18:55:56 25° ENE
STARLINK-1044 3.7 18:49:41 10° WSW 18:53:51 78° NNW 18:56:20 23° ENE
MOS 1 4.3 18:49:04 10° SE 18:54:37 60° ENE 19:00:10 10° N
STARLINK-1051 3.5 18:51:41 10° W 18:55:04 55° N 18:56:37 28° ENE
STARLINK-77 3.8 18:51:12 10° W 18:55:13 60° N 18:57:20 25° ENE
STARLINK-1022 3.9 18:51:33 10° SW 18:55:34 51° SSE 18:57:31 27° E
Meteor 2-4 Rocket 4.0 18:50:10 10° N 18:55:59 53° ENE 19:01:47 10° SSE
STARLINK-1027 3.8 18:52:01 10° W 18:56:17 73° NNW 18:58:47 24° ENE
STARLINK-1028 3.5 18:53:20 10° W 18:56:44 55° N 18:58:14 29° ENE
STARLINK-25 3.8 18:52:51 10° W 18:56:51 60° N 18:58:55 26° ENE
Cosmos 2263 Rocket 4.3 18:54:51 10° N 18:57:18 13° NNE 18:59:44 10° NE
NOSS 2-3 (E) 4.4 18:53:27 10° WSW 18:57:54 57° NW 19:03:21 10° NE
Meteor 1-14 Rocket 4.1 18:53:09 10° S 18:58:37 64° E 19:04:10 10° NNE
STARLINK-71 3.8 18:54:44 10° W 18:58:44 60° N 19:00:42 28° ENE
STARLINK-1021 3.5 18:55:32 10° W 18:58:56 55° N 19:00:21 30° ENE
Gbstr 26 Del rocket 3.2 18:55:42 10° SW 18:59:43 56° SSE 19:02:07 26° E
STARLINK-79 3.8 18:56:11 10° W 19:00:11 60° N 19:02:07 28° ENE
USA 234 3.8 18:55:21 16° ENE 19:00:21 51° N 19:06:38 10° WNW
STARLINK-1042 3.8 18:56:30 10° SW 19:00:33 55° SSE 19:02:19 30° E
GP-B 4.5 19:01:33 21° ENE 19:01:33 21° ENE 19:04:13 10° NNE
STARLINK-1019 3.5 18:57:45 10° W 19:01:09 55° N 19:02:28 32° ENE
STARLINK-78 3.8 18:57:52 10° W 19:01:52 60° N 19:03:43 29° ENE
Cosmos 2369 Rocket 3.5 18:56:48 10° WSW 19:02:09 41° NW 19:07:33 10° NNE
STARLINK-1012 3.5 18:59:58 10° WNW 19:03:23 55° N 19:04:37 33° ENE
STARLINK-57 3.8 18:59:37 10° WNW 19:03:37 60° N 19:05:24 30° ENE
Cosmos 44 Rocket 3.8 18:58:58 10° NW 19:03:37 57° SW 19:08:19 10° SSE
STARLINK-1037 3.7 18:59:35 10° W 19:03:43 73° NNW 19:05:48 28° ENE
Cosmos 1703 Rocket 4.2 18:59:43 10° NNW 19:04:08 59° W 19:08:32 10° S
Cosmos 1898 Rocket 4.0 18:59:02 10° NNW 19:04:09 63° WSW 19:09:16 10° S
STARLINK-49 3.8 19:01:10 10° W 19:05:10 60° N 19:06:53 31° ENE
Cosmos 1602 3.6 19:01:21 10° S 19:05:13 80° E 19:09:06 10° NNE
SJ 16-02 1.9 19:01:00 10° NNW 19:05:22 59° WSW 19:09:41 10° S
NOSS 3-2 (A) 4.1 18:58:16 10° NW 19:05:27 63° NE 19:10:56 22° ESE
STARLINK-1056 3.7 19:01:27 10° SW 19:05:30 58° SSE 19:07:07 33° E
USA 186 1.5 19:05:54 52° ENE 19:05:54 52° ENE 19:08:41 10° N
STARLINK-48 3.4 19:02:11 10° WNW 19:06:06 88° S 19:07:38 35° ESE
STARLINK-27 3.8 19:02:49 10° WNW 19:06:49 60° N 19:08:28 32° ENE
STARLINK-1026 3.5 19:04:25 10° WNW 19:07:50 55° N 19:08:53 37° ENE
Cosmos 841 Rocket 3.8 19:03:09 10° S 19:07:55 40° ESE 19:12:45 10° NE
STARLINK-1023 3.4 19:04:44 10° WNW 19:08:00 54° N 19:08:53 39° NE
Cosmos 1763 Rocket 3.4 19:03:04 10° SSW 19:08:16 68° ESE 19:13:33 10° NNE
Meteor 1-19 Rocket 4.3 19:02:31 10° NNW 19:08:21 87° W 19:13:59 10° S
STARLINK-74 3.8 19:04:30 10° WNW 19:08:30 60° N 19:10:04 33° ENE
STARLINK-1059 3.7 19:04:39 10° W 19:08:48 71° NNW 19:10:41 31° ENE
NOSS 3-2 (C) 4.2 19:02:12 10° NW 19:09:11 53° NE 19:13:51 25° E
Cosmos 2298 Rocket 4.2 19:03:58 10° NNW 19:09:13 52° ENE 19:12:02 26° SE
STARLINK-1013 3.5 19:06:40 10° WNW 19:10:05 55° N 19:11:03 39° ENE
STARLINK-39 3.8 19:06:08 10° WNW 19:10:08 61° N 19:11:38 35° ENE
STARLINK-1054 3.6 19:06:22 10° SW 19:10:27 61° SSE 19:11:52 37° E
ARGOS 3.1 19:05:35 10° SSE 19:10:57 65° ENE 19:16:21 10° N
Resurs 01 Rocket 2.7 19:11:23 26° ENE 19:11:23 26° ENE 19:14:56 10° N
STARLINK-26 3.1 19:07:52 10° WNW 19:11:21 86° SSW 19:12:15 47° ESE
STARLINK-31 3.8 19:07:50 10° WNW 19:11:50 61° N 19:13:16 36° ENE
STARLINK-61 3.5 19:08:13 10° WNW 19:12:08 68° N 19:13:23 40° E
STARLINK-1009 3.5 19:08:54 10° WNW 19:12:19 56° N 19:13:12 41° NE
STARLINK-69 3.7 19:09:41 10° WNW 19:13:41 62° N 19:15:02 38° ENE
STARLINK-1057 3.7 19:09:39 10° W 19:13:48 69° NNW 19:15:28 34° ENE
STARLINK-1015 3.5 19:11:11 10° WNW 19:14:36 56° N 19:15:23 43° NE
Cosmos 1869 Rocket 3.4 19:10:31 10° S 19:14:54 84° E 19:19:18 10° NNE
Cosmos 2208 Rocket 4.2 19:09:49 10° S 19:15:00 50° ESE 19:20:10 10° NNE
STARLINK-21 3.7 19:11:10 10° WNW 19:15:10 61° N 19:16:28 39° ENE
STARLINK-1062 3.6 19:11:19 10° SW 19:15:25 65° SSE 19:16:39 42° E
ARGOS Delta rocket 3.7 19:13:10 24° SE 19:15:37 55° ENE 19:20:04 10° N
Meteor 1-11 Rocket 4.3 19:11:07 10° SSE 19:16:00 32° E 19:20:52 10° NNE
SPOT 3 Rocket 3.7 19:13:10 22° SE 19:16:19 53° ENE 19:21:25 10° N
STARLINK-45 3.7 19:13:03 10° WNW 19:17:03 62° N 19:18:15 41° ENE
CENTAUR R/B 3.4 19:10:40 10° NW 19:18:07 52° NNE 19:22:39 28° E
STARLINK-70 3.7 19:14:36 10° WNW 19:18:37 62° N 19:19:45 42° ENE
STARLINK-1034 3.8 19:14:38 10° W 19:18:46 68° N 19:20:14 38° ENE
STARLINK-1014 3.5 19:16:19 10° WNW 19:19:49 56° N 19:20:28 46° NE
STARLINK-76 3.7 19:16:08 10° WNW 19:20:08 62° N 19:21:13 43° ENE
STARLINK-1053 3.5 19:16:17 10° WSW 19:20:24 69° SSE 19:21:26 47° E
Cosmos 389 Rocket 3.7 19:17:25 10° N 19:19:48 29° NE 19:19:48 29° NE
STARLINK-23 3.7 19:17:47 10° WNW 19:21:48 62° N 19:22:49 45° ENE
STARLINK-80 3.8 19:18:22 10° WNW 19:22:08 56° SSW 19:23:11 40° SSE
CZ-4 R/B 4.5 19:20:05 10° SW 19:22:55 18° W 19:25:43 10° NW
NOSS 3-1 (A) 4.4 19:17:37 10° WSW 19:23:15 46° NNW 19:29:52 10° NE
STARLINK-32 3.7 19:19:26 10° WNW 19:23:27 63° N 19:24:23 46° ENE
STARLINK-1068 3.8 19:19:37 10° W 19:23:46 66° N 19:25:01 42° ENE
STARLINK-40 3.7 19:21:06 10° WNW 19:25:07 63° N 19:25:59 48° ENE
STARLINK-1061 3.5 19:21:13 10° WSW 19:25:21 72° SSE 19:26:12 53° E
Cosmos 2150 Rocket 4.1 19:20:36 10° NNW 19:26:00 64° ENE 19:28:23 33° SE
CZ-2C R/B 3.2 19:20:15 10° SSE 19:26:02 83° ENE 19:31:40 10° NNW
STARLINK-44 3.7 19:22:45 10° WNW 19:26:47 63° N 19:27:35 50° ENE
Lacrosse 4 Rocket 4.3 19:27:16 10° NNW 19:28:17 11° NNW 19:29:19 10° N
STARLINK-37 3.7 19:24:33 10° WNW 19:28:33 65° N 19:29:16 52° ENE
STARLINK-64 3.2 19:24:58 10° WNW 19:28:34 69° NNE 19:28:51 65° NE
STARLINK-33 2.9 19:25:27 10° WNW 19:28:41 77° N 19:28:41 77° N
FREGAT/IRIS 3.0 19:29:02 54° WSW 19:29:08 54° W 19:31:50 10° NNW
Cosmos 1570 Rocket 3.9 19:24:03 10° SSW 19:29:17 75° ESE 19:34:35 10° NNE
STARLINK-36 3.7 19:26:04 10° WNW 19:30:04 64° N 19:30:44 53° ENE
STARLINK-55 2.9 19:26:49 10° WNW 19:29:59 78° NNW 19:29:59 78° NNW
STARLINK-1067 3.5 19:26:12 10° WSW 19:30:20 76° SSE 19:31:00 59° E
SJ-6B 2.6 19:29:20 39° SSE 19:30:40 89° ENE 19:34:30 10° NNW
STARLINK-66 3.0 19:27:43 10° WNW 19:30:52 77° NNW 19:30:52 77° NNW
Cosmos 1125 Rocket 3.9 19:26:02 10° NNW 19:31:08 44° ENE 19:32:01 41° E
Okean 3 3.3 19:27:13 10° N 19:31:28 86° E 19:33:29 30° SSE
STARLINK-28 3.0 19:28:24 10° WNW 19:31:31 78° NW 19:31:31 78° NW
STARLINK-68 3.6 19:27:55 10° WNW 19:31:57 66° N 19:32:31 57° NE
STARLINK-42 3.1 19:29:09 10° WNW 19:32:09 70° NNW 19:32:09 70° NNW
ATLAS 3B R/B 3.3 19:26:48 10° NW 19:33:05 41° NNE 19:35:31 31° ENE
STARLINK-63 3.6 19:29:29 10° WNW 19:33:30 66° N 19:34:01 58° NE
Ariane Rocket 3.8 19:28:43 10° S 19:33:42 53° W 19:38:43 10° NNW
STARLINK-1060 3.8 19:29:37 10° W 19:33:44 64° N 19:34:34 50° NE
STARLINK-1029 3.5 19:31:13 10° WNW 19:34:05 52° NNW 19:34:05 52° NNW
Cosmos 540 Rocket 3.4 19:29:24 10° S 19:34:25 57° ESE 19:39:29 10° NNE
STARLINK-35 3.6 19:31:02 10° WNW 19:35:03 65° N 19:35:31 59° NE
STARLINK-1058 3.5 19:31:09 10° WSW 19:35:18 79° SSE 19:35:46 67° E
STARLINK-1007 3.4 19:32:28 10° WNW 19:35:37 58° N 19:35:37 58° N
STARLINK-51 3.6 19:32:41 10° WNW 19:36:43 66° N 19:37:06 61° NE
Cosmos 1627 Rocket 4.4 19:31:23 10° N 19:37:34 66° ENE 19:41:01 27° SSE
STARLINK-30 3.5 19:34:21 10° WNW 19:38:22 66° N 19:38:42 63° NE
STARLINK-1030 3.8 19:34:38 10° W 19:38:45 63° N 19:39:23 54° NE
STARLINK-72 3.5 19:36:02 10° WNW 19:40:03 67° N 19:40:18 65° NE
STARLINK-1043 3.4 19:36:07 10° WSW 19:40:17 83° SSE 19:40:33 76° E
Meteor 1-13 Rocket 4.2 19:35:07 10° N 19:41:02 81° ENE 19:44:36 24° SSE
STARLINK-50 3.5 19:37:40 10° WNW 19:41:42 67° N 19:41:53 66° NNE
STARLINK-59 3.5 19:39:26 10° WNW 19:43:27 69° N 19:43:34 68° NNE
STARLINK-1020 3.8 19:39:37 10° W 19:43:44 62° N 19:44:09 58° NNE
SL-08 RB Rocket 3.5 19:42:33 41° SSE 19:44:05 89° E 19:48:36 10° NNW
STARLINK-1010 3.8 19:41:31 10° WNW 19:44:08 48° NW 19:44:08 48° NW
Cosmos 1943 Rocket 4.5 19:40:52 10° W 19:45:01 21° NW 19:49:09 10° NNE
STARLINK-56 3.6 19:41:00 10° WNW 19:45:01 68° N 19:45:04 68° NNE
STARLINK-1065 3.4 19:40:55 10° WSW 19:45:04 86° SSE 19:45:09 85° ESE
Cosmos 2297 Rocket 2.1 19:39:23 10° NNW 19:45:07 77° ENE 19:46:50 46° SE
APEX 4.1 19:40:06 10° SSW 19:45:13 73° ESE 19:51:40 10° NE
CZ-2C R/B 3.6 19:42:01 10° NNE 19:46:41 67° ESE 19:51:23 10° S
STARLINK-73 3.6 19:42:39 10° WNW 19:46:39 69° N 19:46:39 69° N
STARLINK-38 3.6 19:44:20 10° WNW 19:48:16 69° N 19:48:16 69° N
STARLINK-1052 3.8 19:44:36 10° W 19:48:44 62° N 19:48:55 61° NNE
STARLINK-65 3.6 19:45:58 10° WNW 19:49:50 69° N 19:49:50 69° N
STARLINK-1063 3.5 19:46:02 10° WSW 19:50:05 85° WSW 19:50:05 85° WSW
Spot 2 Rocket 4.4 19:51:22 33° NE 19:51:22 33° NE 19:55:03 10° N
STARLINK-1047 3.8 19:47:02 10° W 19:51:11 62° N 19:51:18 61° N
Genesis I 4.1 19:47:49 10° NW 19:51:29 42° WSW 19:52:02 40° SSW
STARLINK-53 3.7 19:47:43 10° WNW 19:51:31 69° NNW 19:51:31 69° NNW
STARLINK-1064 3.7 19:51:01 10° WSW 19:54:52 76° W 19:54:52 76° W
Terra 4.2 19:57:30 11° NNE 19:57:30 11° NNE 19:57:43 10° NNE
Cosmos 2026 Rocket 3.8 19:49:19 10° N 19:55:33 82° E 19:58:22 35° SSE
ATLAS 2AS CENTAUR R/B 4.4 19:51:24 10° S 19:53:45 19° SSE 19:53:45 19° SSE
STARLINK-1033 4.0 19:54:35 10° W 19:58:29 60° NNW 19:58:29 60° NNW
Meteor 1-5 Rocket 4.1 19:54:16 10° S 19:59:46 87° E 20:05:32 10° NNE
STARLINK-1041 3.8 19:56:00 10° WSW 19:59:39 67° W 19:59:39 67° W
Cosmos 2227 Rocket 2.1 19:58:33 10° NNW 20:04:15 88° WSW 20:05:17 61° SSE
STARLINK-1038 4.1 20:00:59 10° WSW 20:04:25 59° W 20:04:25 59° W
Cosmos 1674 Rocket 3.7 20:01:17 10° N 20:05:10 67° N 20:05:10 67° N
USA 238 DEB 3.9 19:59:21 10° NW 20:06:30 74° SW 20:09:21 41° SSE
USA 238 3.9 19:59:27 10° NW 20:06:36 74° SW 20:09:24 41° SSE
Meteor 1-23 Rocket 4.1 20:01:03 10° N 20:06:44 74° ENE 20:07:08 70° ESE
STARLINK-1024 4.3 20:04:36 10° W 20:08:04 52° NW 20:08:04 52° NW
STARLINK-1046 4.3 20:05:59 10° WSW 20:09:13 53° W 20:09:13 53° W
Cosmos 2082 3.6 20:04:41 10° NNW 20:10:25 69° ENE 20:10:31 69° ENE
H-2A R/B 3.4 20:06:21 10° SSW 20:11:24 39° W 20:16:32 10° NNW
Resurs 1-3 4.2 20:22:00 55° W 20:22:00 55° W 20:26:00 10° NNW
Lacrosse 5 rocket 2.3 20:20:12 10° WNW 20:23:51 51° W 20:23:51 51° W
Cosmos 1655 Rocket 4.0 20:21:24 10° N 20:27:24 68° NE 20:27:24 68° NE
Cosmos 2142 Rocket 4.3 20:30:22 79° S 20:30:49 90° ENE 20:37:05 10° N
Cosmos 2219 4.3 20:27:00 10° NW 20:32:20 40° WSW 20:34:13 31° SSW
Lacrosse 5 2.4 20:30:43 10° WSW 20:34:53 55° W 20:34:53 55° W
GP-B 4.4 20:38:57 38° NW 20:38:57 38° NW 20:42:09 10° NNW
Cosmos 2279 Rocket 4.2 20:40:08 61° NNE 20:40:08 61° NNE 20:45:12 10° N
CZ-2C R/B 3.9 20:35:43 10° NNE 20:38:39 33° NNE 20:38:39 33° NNE
USA 234 3.2 20:42:41 67° NE 20:42:57 68° NNE 20:49:27 10° WNW
Cosmos 2263 Rocket 3.5 20:37:51 10° NNW 20:41:27 30° NNE 20:41:27 30° NNE
Cosmos 1634 Rocket 4.5 20:38:17 10° SSW 20:44:31 59° WNW 20:50:48 10° N
Resurs 01 Rocket 3.2 20:48:56 34° NW 20:48:56 34° NW 20:51:51 10° NNW
NOSS 3-2 (C) 4.2 20:53:09 10° NW 21:00:28 60° SW 21:01:19 57° SSW
CENTAUR R/B 3.2 21:01:26 10° NW 21:09:18 65° SW 21:09:51 64° SW
ATLAS 3B R/B 3.2 21:17:33 10° NW 21:22:47 56° WNW 21:22:47 56° WNW
Cosmos 2297 Rocket 4.2 21:24:27 10° NW 21:28:32 21° W 21:28:41 21° WSW
Terra 4.5 21:36:22 14° NNW 21:36:22 14° NNW 21:37:06 10° NNW
